Location: Palmerston North
(40.3500°S, 175.6170°E)
Time: 17:28:57
(UTC+13:00)

Cosmos 1606 - Pass Details

Date: 24 January 2019
Orbit: 506 x 528 km, 82.5° (Epoch: 19 February)

Event Time Altitude Azimuth Distance (km) Brightness Sun altitude
Exits shadow 23:25:31 58° 276° (W) 632 3.1 -23.8°
Maximum altitude 23:25:43 59° 261° (W) 627 3.2 -23.8°
Drops below altitude 10° 23:29:39 10° 180° (S) 1,808 6.2 -24.2°
Sets 23:31:50 0° 176° (S) 2,705 7.2 -24.4°
